TimeEDT,TemperatureF,Dew PointF,Humidity,Sea Level PressureIn,VisibilityMPH,Wind Direction,Wind SpeedMPH,Gust SpeedMPH,PrecipitationIn,Events,Conditions,WindDirDegrees,DateUTC
12:15 AM,55.4,55.4,100,30.14,10.0,Calm,Calm,-,N/A,,Unknown,0,2012-10-25 04:15:00
12:35 AM,55.4,55.4,100,30.14,7.0,Calm,Calm,-,N/A,,Unknown,0,2012-10-25 04:35:00
12:55 AM,55.4,55.4,100,30.14,10.0,Calm,Calm,-,N/A,,Unknown,0,2012-10-25 04:55:00
1:15 AM,53.6,53.6,100,30.14,10.0,Calm,Calm,-,N/A,,Unknown,0,2012-10-25 05:15:00
1:35 AM,55.4,55.4,100,30.14,7.0,Calm,Calm,-,N/A,,Unknown,0,2012-10-25 05:35:00
1:55 AM,53.6,53.6,100,30.14,7.0,Calm,Calm,-,N/A,,Unknown,0,2012-10-25 05:55:00
2:15 AM,55.4,55.4,100,30.14,0.8,Calm,Calm,-,N/A,,Mist,0,2012-10-25 06:15:00
2:35 AM,55.4,55.4,100,30.14,3.0,Calm,Calm,-,N/A,,Mist,0,2012-10-25 06:35:00
2:55 AM,53.6,53.6,100,30.14,5.0,Calm,Calm,-,N/A,,Mist,0,2012-10-25 06:55:00
3:35 AM,53.6,53.6,100,30.13,1.8,Calm,Calm,-,N/A,,Mist,0,2012-10-25 07:35:00
3:55 AM,51.8,51.8,100,30.13,4.0,Calm,Calm,-,N/A,,Mist,0,2012-10-25 07:55:00
4:15 AM,53.6,53.6,100,30.13,5.0,Calm,Calm,-,N/A,,Mist,0,2012-10-25 08:15:00
4:35 AM,51.8,51.8,100,30.13,2.5,Calm,Calm,-,N/A,,Mist,0,2012-10-25 08:35:00
4:55 AM,51.8,51.8,100,30.14,4.0,North,4.6,-,N/A,,Mist,10,2012-10-25 08:55:00
5:15 AM,51.8,51.8,100,30.14,4.0,Calm,Calm,-,N/A,,Mist,0,2012-10-25 09:15:00
5:35 AM,51.8,51.8,100,30.15,4.0,Calm,Calm,-,N/A,,Mist,0,2012-10-25 09:35:00
5:55 AM,51.8,51.8,100,30.16,4.0,Calm,Calm,-,N/A,,Mist,0,2012-10-25 09:55:00
6:15 AM,51.8,51.8,100,30.16,7.0,Calm,Calm,-,N/A,,Unknown,0,2012-10-25 10:15:00
6:35 AM,51.8,51.8,100,30.17,5.0,Calm,Calm,-,N/A,,Mist,0,2012-10-25 10:35:00
6:55 AM,50.0,50.0,100,30.17,7.0,Calm,Calm,-,N/A,,Unknown,0,2012-10-25 10:55:00
7:35 AM,50.0,50.0,100,30.18,4.0,Calm,Calm,-,N/A,,Mist,0,2012-10-25 11:35:00
7:55 AM,53.6,53.6,100,30.18,3.0,Calm,Calm,-,N/A,,Mist,0,2012-10-25 11:55:00
8:15 AM,55.4,55.4,100,30.20,0.2,Calm,Calm,-,N/A,Fog,Fog,0,2012-10-25 12:15:00
8:35 AM,57.2,57.2,100,30.20,0.2,Calm,Calm,-,N/A,Fog,Fog,0,2012-10-25 12:35:00
8:55 AM,57.2,57.2,100,30.21,0.2,Calm,Calm,-,N/A,Fog,Fog,0,2012-10-25 12:55:00
9:55 AM,60.8,60.8,100,30.22,1.0,Calm,Calm,-,N/A,,Mist,0,2012-10-25 13:55:00
10:15 AM,60.8,60.8,100,30.22,1.0,Calm,Calm,-,N/A,,Mist,0,2012-10-25 14:15:00
10:55 AM,60.8,60.8,100,30.22,1.5,Calm,Calm,-,N/A,,Mist,0,2012-10-25 14:55:00
11:15 AM,60.8,60.8,100,30.23,2.5,Calm,Calm,-,N/A,,Mist,0,2012-10-25 15:15:00
12:15 PM,62.6,62.6,100,30.22,4.0,ENE,3.5,-,N/A,,Mist,60,2012-10-25 16:15:00
12:35 PM,64.4,62.6,94,30.21,4.0,Calm,Calm,-,N/A,,Mist,0,2012-10-25 16:35:00
12:55 PM,64.4,62.6,94,30.20,4.0,East,3.5,-,N/A,,Mist,90,2012-10-25 16:55:00
1:15 PM,64.4,62.6,94,30.20,5.0,Calm,Calm,-,N/A,,Mist,0,2012-10-25 17:15:00
1:35 PM,66.2,62.6,88,30.19,5.0,Calm,Calm,-,N/A,,Mist,0,2012-10-25 17:35:00
1:55 PM,66.2,62.6,88,30.19,5.0,NNE,3.5,-,N/A,,Haze,30,2012-10-25 17:55:00
2:15 PM,68.0,60.8,78,30.18,7.0,Calm,Calm,-,N/A,,Unknown,0,2012-10-25 18:15:00
2:35 PM,69.8,60.8,73,30.18,7.0,Calm,Calm,-,N/A,,Unknown,0,2012-10-25 18:35:00
2:55 PM,69.8,60.8,73,30.18,7.0,Calm,Calm,-,N/A,,Unknown,0,2012-10-25 18:55:00
3:15 PM,71.6,60.8,69,30.17,7.0,ENE,4.6,-,N/A,,Unknown,60,2012-10-25 19:15:00
3:35 PM,71.6,60.8,69,30.17,7.0,East,4.6,-,N/A,,Unknown,80,2012-10-25 19:35:00
3:55 PM,71.6,60.8,69,30.17,10.0,East,3.5,-,N/A,,Unknown,90,2012-10-25 19:55:00
4:15 PM,71.6,60.8,69,30.17,10.0,Calm,Calm,-,N/A,,Unknown,0,2012-10-25 20:15:00
4:35 PM,73.4,60.8,65,30.16,10.0,Calm,Calm,-,N/A,,Unknown,0,2012-10-25 20:35:00
4:55 PM,73.4,60.8,65,30.16,10.0,East,3.5,-,N/A,,Unknown,100,2012-10-25 20:55:00
5:15 PM,71.6,60.8,69,30.16,10.0,East,4.6,-,N/A,,Unknown,90,2012-10-25 21:15:00
5:35 PM,71.6,60.8,69,30.16,10.0,ESE,4.6,-,N/A,,Unknown,120,2012-10-25 21:35:00
5:55 PM,69.8,60.8,73,30.16,10.0,Calm,Calm,-,N/A,,Unknown,0,2012-10-25 21:55:00
6:15 PM,69.8,60.8,73,30.16,10.0,Calm,Calm,-,N/A,,Unknown,0,2012-10-25 22:15:00
6:35 PM,66.2,60.8,83,30.17,10.0,Calm,Calm,-,N/A,,Unknown,0,2012-10-25 22:35:00
6:55 PM,66.2,60.8,83,30.17,10.0,Calm,Calm,-,N/A,,Unknown,0,2012-10-25 22:55:00
7:15 PM,62.6,60.8,94,30.18,10.0,Calm,Calm,-,N/A,,Unknown,0,2012-10-25 23:15:00
7:35 PM,62.6,60.8,94,30.18,10.0,Calm,Calm,-,N/A,,Unknown,0,2012-10-25 23:35:00
7:55 PM,64.4,60.8,88,30.18,10.0,Calm,Calm,-,N/A,,Unknown,0,2012-10-25 23:55:00
8:15 PM,64.4,60.8,88,30.18,10.0,Calm,Calm,-,N/A,,Unknown,0,2012-10-26 00:15:00
8:35 PM,62.6,60.8,94,30.19,7.0,Calm,Calm,-,N/A,,Unknown,0,2012-10-26 00:35:00
8:55 PM,60.8,60.8,100,30.19,7.0,Calm,Calm,-,N/A,,Unknown,0,2012-10-26 00:55:00
9:15 PM,57.2,57.2,100,30.19,4.0,Calm,Calm,-,N/A,,Mist,0,2012-10-26 01:15:00
9:35 PM,57.2,57.2,100,30.19,3.0,Calm,Calm,-,N/A,,Mist,0,2012-10-26 01:35:00
9:55 PM,57.2,57.2,100,30.19,3.0,Calm,Calm,-,N/A,,Mist,0,2012-10-26 01:55:00
10:15 PM,57.2,57.2,100,30.19,2.0,Calm,Calm,-,N/A,,Mist,0,2012-10-26 02:15:00
10:35 PM,57.2,57.2,100,30.18,1.0,Calm,Calm,-,N/A,,Mist,0,2012-10-26 02:35:00
10:55 PM,57.2,57.2,100,30.19,1.5,Calm,Calm,-,N/A,,Mist,0,2012-10-26 02:55:00
11:15 PM,57.2,57.2,100,30.19,2.0,Calm,Calm,-,N/A,,Mist,0,2012-10-26 03:15:00
11:35 PM,59.0,59.0,100,30.18,3.0,Calm,Calm,-,N/A,,Mist,0,2012-10-26 03:35:00
11:55 PM,60.8,60.8,100,30.18,4.0,Calm,Calm,-,N/A,,Mist,0,2012-10-26 03:55:00